"Pseudo-MPEC" for P21OdBq

Created 2023 Nov 26 6:22:08 UT using Find_Orb

Click here for an explanation of pseudo-MPECs

 
 Astrometry: 
     P21OdBq* C2023 11 17,n7bAstrometryb#ww=G(.redacted;SPCmclickFts9R'c]OVI?F52
     P21OdBq  C2023 11 170d1rMhIJ,qR:J]2HhereP2BforJ;V-X96ib,bLqsDxHH?.iEN7v;F52
     P21OdBq  C2023 11 174A)V(aIPeK98vfexplanation6N(^*P#llm8u^46Lh1UD9=m1GX6F52

Station data:
(F52) Pan-STARRS 2, Haleakala  (N20.707382 W156.255910)  US/Hawaii.
   Observers J. Bulger, T. Dukes, T. Lowe, A. Schultz, M. Willman. Measurers
   K. Chambers, S. Chastel, T. de Boer, L. Denneau, J. Fairlamb, H.
   Flewelling, M. Huber, C.-C. Lin, E. Magnier, Y. Ramanjooloo, R. Wainscoat,
   R. Weryk. 1.8-m Ritchey-Chrétien + CCD.

Orbital elements:  P21OdBq
   Perihelion 2024 Feb 9.10179 +/- 83 TT =  2:26:34 (JD 2460349.60179)
Epoch 2023 Nov 17.0 TT = JDT 2460265.5   Earth MOID: 0.0507   Ma: 0.0777
M 306.37210815 +/- 70               (J2000 ecliptic)             AutoNEOCP
n   0.63765459 +/- 0.458            Peri.  112.55760 +/- 80
a   1.33683883 +/- 0.641            Node    40.17160 +/- 36
e   0.4240655 +/- 0.26              Incl.   24.26838 +/- 25
P   1.55/564.56d           H 23.24  G  0.15   U 12.2  SR
q 0.76993148 +/- 0.342    Q 1.90374619 +/- 19.3
From 3 observations 2023 Nov. 17 (47.7 min); mean residual 0".18
Residuals in arcseconds: 
231117 F52  .13+  .19-    231117 F52  .20-  .28+    231117 F52  .07+  .09-    

Ephemerides (geocentric):
Date (UTC) HH   RA             Dec           delta  r     elong  mag " sig PA
---- --------  ------------   ------------  ------ ------ -----  --- --------
2023 11 26 06  23 56 35.984   +34 23 39.31  .25436 1.1491 124.1 22.3  26d 113
2023 11 26 07  23 56 15.960   +34 25 01.49  .25441 1.1488 124.0 22.3  26d 112
2023 11 26 08  23 55 55.944   +34 26 23.44  .25446 1.1485 123.9 22.3  26d 112
2023 11 26 09  23 55 35.935   +34 27 45.16  .25451 1.1482 123.8 22.3  26d 112
2023 11 26 10  23 55 15.934   +34 29 06.65  .25456 1.1479 123.7 22.3  26d 112
2023 11 26 11  23 54 55.940   +34 30 27.92  .25461 1.1476 123.6 22.3  26d 112
2023 11 26 12  23 54 35.955   +34 31 48.95  .25467 1.1473 123.5 22.3  26d 112
2023 11 26 13  23 54 15.976   +34 33 09.76  .25472 1.1470 123.4 22.3  26d 112
2023 11 26 14  23 53 56.006   +34 34 30.34  .25477 1.1467 123.3 22.3  26d 112
2023 11 26 15  23 53 36.044   +34 35 50.69  .25483 1.1465 123.2 22.3  26d 112
2023 11 26 16  23 53 16.089   +34 37 10.81  .25488 1.1462 123.1 22.3  26d 112
2023 11 26 17  23 52 56.143   +34 38 30.70  .25494 1.1459 123.0 22.3  26d 112
2023 11 26 18  23 52 36.205   +34 39 50.37  .25499 1.1456 122.9 22.3  26d 112
2023 11 26 19  23 52 16.275   +34 41 09.80  .25505 1.1453 122.8 22.3  26d 112
2023 11 26 20  23 51 56.354   +34 42 29.01  .25510 1.1450 122.7 22.3  26d 112
2023 11 26 21  23 51 36.441   +34 43 47.99  .25516 1.1447 122.6 22.3  26d 112
2023 11 26 22  23 51 16.536   +34 45 06.75  .25521 1.1444 122.5 22.3  26d 112
2023 11 26 23  23 50 56.641   +34 46 25.27  .25527 1.1441 122.4 22.3  26d 112
2023 11 27 00  23 50 36.753   +34 47 43.57  .25533 1.1439 122.3 22.3  26d 112
2023 11 27 01  23 50 16.875   +34 49 01.64  .25539 1.1436 122.2 22.3  26d 112
2023 11 27 02  23 49 57.005   +34 50 19.48  .25544 1.1433 122.1 22.3  26d 112
2023 11 27 03  23 49 37.145   +34 51 37.10  .25550 1.1430 122.0 22.3  26d 112
2023 11 27 04  23 49 17.293   +34 52 54.49  .25556 1.1427 121.9 22.3  26d 112
2023 11 27 05  23 48 57.450   +34 54 11.65  .25562 1.1424 121.8 22.3  26d 112
2023 11 27 06  23 48 37.617   +34 55 28.58  .25568 1.1421 121.7 22.3  26d 112
2023 11 27 07  23 48 17.793   +34 56 45.29  .25574 1.1418 121.6 22.4  26d 112
2023 11 27 08  23 47 57.978   +34 58 01.77  .25580 1.1415 121.5 22.4  26d 112
2023 11 27 09  23 47 38.173   +34 59 18.02  .25586 1.1413 121.4 22.4  26d 112
2023 11 27 10  23 47 18.377   +35 00 34.05  .25592 1.1410 121.3 22.4  26d 112
2023 11 27 11  23 46 58.590   +35 01 49.85  .25598 1.1407 121.2 22.4  26d 112
2023 11 27 12  23 46 38.813   +35 03 05.42  .25605 1.1404 121.1 22.4  26d 112
2023 11 27 13  23 46 19.046   +35 04 20.77  .25611 1.1401 121.0 22.4  26d 112
2023 11 27 14  23 45 59.289   +35 05 35.89  .25617 1.1398 120.9 22.4  26d 112
2023 11 27 15  23 45 39.542   +35 06 50.79  .25624 1.1395 120.8 22.4  26d 112
2023 11 27 16  23 45 19.804   +35 08 05.46  .25630 1.1392 120.7 22.4  26d 112
2023 11 27 17  23 45 00.077   +35 09 19.90  .25636 1.1389 120.6 22.4  26d 112
2023 11 27 18  23 44 40.359   +35 10 34.12  .25643 1.1387 120.5 22.4  26d 112
2023 11 27 19  23 44 20.652   +35 11 48.11  .25649 1.1384 120.4 22.4  27d 112
2023 11 27 20  23 44 00.955   +35 13 01.88  .25656 1.1381 120.3 22.4  27d 112
2023 11 27 21  23 43 41.268   +35 14 15.43  .25662 1.1378 120.2 22.4  27d 112
2023 11 27 22  23 43 21.592   +35 15 28.75  .25669 1.1375 120.2 22.4  27d 112
2023 11 27 23  23 43 01.926   +35 16 41.84  .25676 1.1372 120.1 22.4  27d 112
2023 11 28 00  23 42 42.271   +35 17 54.71  .25682 1.1369 120.0 22.4  27d 112
2023 11 28 01  23 42 22.626   +35 19 07.36  .25689 1.1366 119.9 22.4  27d 112
2023 11 28 02  23 42 02.992   +35 20 19.78  .25696 1.1363 119.8 22.4  27d 112
2023 11 28 03  23 41 43.369   +35 21 31.98  .25703 1.1360 119.7 22.4  27d 112
2023 11 28 04  23 41 23.756   +35 22 43.96  .25709 1.1358 119.6 22.4  27d 112
2023 11 28 05  23 41 04.155   +35 23 55.71  .25716 1.1355 119.5 22.4  27d 112